Time,TemperatureF,DewpointF,PressureIn,WindDirection,WindDirectionDegrees,WindSpeedMPH,WindSpeedGustMPH,Humidity,HourlyPrecipIn,Conditions,Clouds,dailyrainin,SoftwareType,DateUTC
2013-06-23 00:01:00,71.0,71.0,30.07,SE,129,3.0,0.0,100,0.00,,,0.00,,2013-06-23 04:01:00,
2013-06-23 00:11:00,71.0,71.0,30.07,SE,129,3.0,0.0,100,0.00,,,0.00,,2013-06-23 04:11:00,
2013-06-23 00:21:00,71.0,71.0,30.07,SE,129,3.0,0.0,100,0.00,,,0.00,,2013-06-23 04:21:00,
2013-06-23 00:31:00,71.0,71.0,30.07,SE,129,3.0,0.0,100,0.00,,,0.00,,2013-06-23 04:31:00,
2013-06-23 00:42:00,71.0,71.0,30.07,SE,129,3.0,0.0,100,0.00,,,0.00,,2013-06-23 04:42:00,
2013-06-23 01:11:00,70.0,70.0,30.07,SE,138,0.0,0.0,100,0.00,,,0.00,,2013-06-23 05:11:00,
2013-06-23 01:22:00,70.0,70.0,30.07,SE,138,0.0,0.0,100,0.00,,,0.00,,2013-06-23 05:22:00,
2013-06-23 01:32:00,69.0,69.0,30.06,ESE,107,0.0,0.0,100,0.00,,,0.00,,2013-06-23 05:32:00,
2013-06-23 01:41:00,69.0,69.0,30.06,ENE,73,6.0,6.0,100,0.00,,,0.00,,2013-06-23 05:41:00,
2013-06-23 01:51:00,69.0,69.0,30.06,SE,128,5.0,6.0,100,0.00,,,0.00,,2013-06-23 05:51:00,
2013-06-23 02:02:00,69.0,69.0,30.06,ESE,117,5.0,6.0,100,0.00,,,0.00,,2013-06-23 06:02:00,
2013-06-23 02:12:00,69.0,69.0,30.06,SSE,148,5.0,7.0,100,0.00,,,0.00,,2013-06-23 06:12:00,
2013-06-23 02:22:00,69.0,69.0,30.06,SE,124,5.0,7.0,100,0.00,,,0.00,,2013-06-23 06:22:00,
2013-06-23 02:33:00,69.0,69.0,30.06,SSE,158,4.0,0.0,100,0.00,,,0.00,,2013-06-23 06:33:00,
2013-06-23 02:43:00,69.0,69.0,30.06,ESE,122,5.0,6.0,100,0.00,,,0.00,,2013-06-23 06:43:00,
2013-06-23 02:52:00,69.0,69.0,30.06,East,96,0.0,6.0,100,0.00,,,0.00,,2013-06-23 06:52:00,
2013-06-23 03:02:00,69.0,69.0,30.06,East,82,5.0,5.0,100,0.00,,,0.00,,2013-06-23 07:02:00,
2013-06-23 03:12:00,69.0,69.0,30.06,ESE,121,4.0,5.0,100,0.00,,,0.00,,2013-06-23 07:12:00,
2013-06-23 03:22:00,69.0,69.0,30.06,East,97,0.0,0.0,100,0.00,,,0.00,,2013-06-23 07:22:00,
2013-06-23 03:34:00,69.0,69.0,30.06,East,97,0.0,0.0,100,0.00,,,0.00,,2013-06-23 07:34:00,
2013-06-23 03:43:00,68.0,68.0,30.06,East,84,0.0,0.0,100,0.00,,,0.00,,2013-06-23 07:43:00,
2013-06-23 03:53:00,68.0,68.0,30.06,East,90,4.0,0.0,100,0.00,,,0.00,,2013-06-23 07:53:00,
2013-06-23 04:02:00,68.0,68.0,30.06,ENE,75,3.0,0.0,100,0.00,,,0.00,,2013-06-23 08:02:00,
2013-06-23 04:12:00,68.0,68.0,30.07,ESE,111,0.0,0.0,100,0.00,,,0.00,,2013-06-23 08:12:00,
2013-06-23 04:22:00,68.0,68.0,30.07,SE,124,0.0,0.0,100,0.00,,,0.00,,2013-06-23 08:22:00,
2013-06-23 04:34:00,68.0,68.0,30.07,SE,124,0.0,0.0,100,0.00,,,0.00,,2013-06-23 08:34:00,
2013-06-23 04:43:00,68.0,68.0,30.07,SE,124,0.0,0.0,100,0.00,,,0.00,,2013-06-23 08:43:00,
2013-06-23 04:53:00,68.0,68.0,30.07,SE,124,0.0,0.0,100,0.00,,,0.00,,2013-06-23 08:53:00,
2013-06-23 05:02:00,68.0,68.0,30.08,SE,124,0.0,0.0,100,0.00,,,0.00,,2013-06-23 09:02:00,
2013-06-23 05:12:00,68.0,68.0,30.08,SE,124,0.0,0.0,100,0.00,,,0.00,,2013-06-23 09:12:00,
2013-06-23 05:22:00,68.0,68.0,30.08,SE,124,0.0,0.0,100,0.00,,,0.00,,2013-06-23 09:22:00,
2013-06-23 05:34:00,68.0,68.0,30.09,SE,124,0.0,0.0,100,0.00,,,0.00,,2013-06-23 09:34:00,
2013-06-23 05:43:00,68.0,68.0,30.09,SE,124,0.0,0.0,100,0.00,,,0.00,,2013-06-23 09:43:00,
2013-06-23 05:53:00,68.0,68.0,30.09,SE,124,0.0,0.0,100,0.00,,,0.00,,2013-06-23 09:53:00,
2013-06-23 06:02:00,68.0,68.0,30.10,SE,124,0.0,0.0,100,0.00,,,0.00,,2013-06-23 10:02:00,
2013-06-23 06:11:00,68.0,68.0,30.10,SE,124,0.0,0.0,100,0.00,,,0.00,,2013-06-23 10:11:00,
2013-06-23 06:22:00,68.0,68.0,30.10,SE,124,0.0,0.0,100,0.00,,,0.00,,2013-06-23 10:22:00,
2013-06-23 06:34:00,68.0,68.0,30.11,SE,124,0.0,0.0,100,0.00,,,0.00,,2013-06-23 10:34:00,
2013-06-23 06:43:00,68.0,68.0,30.11,SE,124,0.0,0.0,100,0.00,,,0.00,,2013-06-23 10:43:00,
2013-06-23 07:01:00,68.0,68.0,30.11,SE,124,0.0,0.0,100,0.00,,,0.00,,2013-06-23 11:01:00,
2013-06-23 07:11:00,68.0,68.0,30.10,SE,124,0.0,0.0,100,0.00,,,0.00,,2013-06-23 11:11:00,
2013-06-23 07:22:00,67.0,67.0,30.10,SE,124,0.0,0.0,100,0.00,,,0.00,,2013-06-23 11:22:00,
2013-06-23 07:33:00,67.0,67.0,30.10,SE,124,0.0,0.0,100,0.00,,,0.00,,2013-06-23 11:33:00,
2013-06-23 07:43:00,68.0,68.0,30.10,SE,124,0.0,0.0,100,0.00,,,0.00,,2013-06-23 11:43:00,
2013-06-23 07:53:00,68.0,68.0,30.11,SE,131,2.0,7.0,100,0.00,,,0.00,,2013-06-23 11:53:00,
2013-06-23 08:01:00,68.0,68.0,30.11,SE,136,4.0,4.0,100,0.00,,,0.00,,2013-06-23 12:01:00,
2013-06-23 08:12:00,69.0,69.0,30.11,SE,142,4.0,0.0,100,0.00,,,0.00,,2013-06-23 12:12:00,
2013-06-23 08:22:00,69.0,69.0,30.11,South,183,1.0,6.0,100,0.00,,,0.00,,2013-06-23 12:22:00,
2013-06-23 08:33:00,70.0,70.0,30.11,East,91,3.0,0.0,100,0.00,,,0.00,,2013-06-23 12:33:00,
2013-06-23 08:42:00,71.0,71.0,30.12,SE,128,4.0,4.0,100,0.00,,,0.00,,2013-06-23 12:42:00,
2013-06-23 08:53:00,72.0,72.0,30.12,SSE,148,5.0,5.0,100,0.00,,,0.00,,2013-06-23 12:53:00,
2013-06-23 09:02:00,72.0,72.0,30.12,SE,143,6.0,6.0,100,0.00,,,0.00,,2013-06-23 13:02:00,
2013-06-23 09:23:00,75.0,74.0,30.12,SSE,153,5.0,7.0,97,0.00,,,0.00,,2013-06-23 13:23:00,
2013-06-23 09:34:00,76.0,74.0,30.11,South,177,6.0,6.0,95,0.00,,,0.00,,2013-06-23 13:34:00,
2013-06-23 09:43:00,77.0,75.0,30.11,South,174,6.0,6.0,93,0.00,,,0.00,,2013-06-23 13:43:00,
2013-06-23 09:53:00,77.0,74.0,30.11,South,183,5.0,5.0,92,0.00,,,0.00,,2013-06-23 13:53:00,
2013-06-23 10:04:00,78.0,75.0,30.11,SE,142,7.0,7.0,91,0.00,,,0.00,,2013-06-23 14:04:00,
2013-06-23 10:11:00,79.0,75.0,30.11,SE,142,6.0,6.0,87,0.00,,,0.00,,2013-06-23 14:11:00,
2013-06-23 10:22:00,80.0,75.0,30.11,SSE,167,4.0,0.0,85,0.00,,,0.00,,2013-06-23 14:22:00,
2013-06-23 10:34:00,81.0,75.0,30.10,East,91,5.0,5.0,81,0.00,,,0.00,,2013-06-23 14:34:00,
2013-06-23 10:44:00,82.0,74.0,30.10,SE,128,5.0,6.0,78,0.00,,,0.00,,2013-06-23 14:44:00,
2013-06-23 10:52:00,82.0,74.0,30.10,SE,125,4.0,6.0,78,0.00,,,0.00,,2013-06-23 14:52:00,
2013-06-23 11:05:00,82.0,74.0,30.10,SE,125,4.0,6.0,78,0.00,,,0.00,,2013-06-23 15:05:00,
2013-06-23 11:12:00,83.0,74.0,30.09,SSE,153,8.0,8.0,75,0.00,,,0.00,,2013-06-23 15:12:00,
2013-06-23 11:23:00,83.0,74.0,30.09,SSE,153,8.0,8.0,75,0.00,,,0.00,,2013-06-23 15:23:00,
2013-06-23 11:35:00,84.0,74.0,30.09,South,187,6.0,6.0,72,0.00,,,0.00,,2013-06-23 15:35:00,
2013-06-23 11:43:00,84.0,73.0,30.09,SE,139,7.0,7.0,70,0.00,,,0.00,,2013-06-23 15:43:00,
2013-06-23 11:52:00,84.0,73.0,30.09,South,169,4.0,6.0,70,0.00,,,0.00,,2013-06-23 15:52:00,
2013-06-23 12:06:00,85.0,74.0,30.09,SSE,162,2.0,4.0,69,0.00,,,0.00,,2013-06-23 16:06:00,
2013-06-23 12:12:00,85.0,73.0,30.09,SSE,155,8.0,8.0,67,0.00,,,0.00,,2013-06-23 16:12:00,
2013-06-23 12:22:00,85.0,72.0,30.09,East,91,6.0,6.0,66,0.00,,,0.00,,2013-06-23 16:22:00,
2013-06-23 12:36:00,85.0,72.0,30.09,South,186,7.0,12.0,65,0.00,,,0.00,,2013-06-23 16:36:00,
2013-06-23 12:43:00,84.0,72.0,30.09,SW,231,9.0,9.0,67,0.00,,,0.00,,2013-06-23 16:43:00,
2013-06-23 12:53:00,84.0,72.0,30.09,SW,231,9.0,9.0,67,0.00,,,0.00,,2013-06-23 16:53:00,
2013-06-23 13:06:00,85.0,72.0,30.09,SSW,193,7.0,8.0,65,0.00,,,0.00,,2013-06-23 17:06:00,
2013-06-23 13:12:00,84.0,71.0,30.09,South,180,9.0,13.0,66,0.00,,,0.00,,2013-06-23 17:12:00,
2013-06-23 13:22:00,84.0,72.0,30.08,SSW,198,7.0,9.0,67,0.00,,,0.00,,2013-06-23 17:22:00,
2013-06-23 13:33:00,85.0,72.0,30.08,SSW,198,7.0,7.0,65,0.00,,,0.00,,2013-06-23 17:33:00,
2013-06-23 13:43:00,85.0,72.0,30.08,West,273,5.0,7.0,65,0.00,,,0.00,,2013-06-23 17:43:00,
2013-06-23 13:53:00,85.0,71.0,30.08,SSW,197,7.0,7.0,64,0.00,,,0.00,,2013-06-23 17:53:00,
2013-06-23 14:01:00,86.0,71.0,30.08,SSW,194,8.0,13.0,62,0.00,,,0.00,,2013-06-23 18:01:00,
2013-06-23 14:12:00,87.0,71.0,30.07,SSE,166,7.0,7.0,60,0.00,,,0.00,,2013-06-23 18:12:00,
2013-06-23 14:22:00,84.0,69.0,30.08,West,274,9.0,9.0,61,0.00,,,0.00,,2013-06-23 18:22:00,
2013-06-23 14:34:00,83.0,69.0,30.09,WSW,242,5.0,10.0,63,0.00,,,0.00,,2013-06-23 18:34:00,
2013-06-23 14:43:00,81.0,69.0,30.09,West,266,7.0,7.0,66,0.00,,,0.00,,2013-06-23 18:43:00,
2013-06-23 15:01:00,79.0,74.0,30.10,NW,304,9.0,9.0,84,0.00,,,0.00,,2013-06-23 19:01:00,
2013-06-23 15:11:00,80.0,74.0,30.10,North,4,7.0,7.0,81,0.00,,,0.00,,2013-06-23 19:11:00,
2013-06-23 15:21:00,79.0,73.0,30.10,SW,225,12.0,12.0,83,0.00,,,0.00,,2013-06-23 19:21:00,
2013-06-23 15:32:00,79.0,73.0,30.10,SW,225,12.0,12.0,83,0.00,,,0.00,,2013-06-23 19:32:00,
2013-06-23 15:43:00,76.0,74.0,30.10,WSW,242,8.0,8.0,93,0.00,,,0.00,,2013-06-23 19:43:00,
2013-06-23 15:53:00,76.0,74.0,30.10,South,177,7.0,0.0,94,0.00,,,0.00,,2013-06-23 19:53:00,
2013-06-23 16:02:00,76.0,75.0,30.10,West,264,5.0,5.0,96,0.00,,,0.00,,2013-06-23 20:02:00,
2013-06-23 16:12:00,75.0,74.0,30.09,WSW,253,4.0,4.0,98,0.00,,,0.00,,2013-06-23 20:12:00,
2013-06-23 16:24:00,76.0,75.0,30.09,WSW,252,4.0,4.0,98,0.00,,,0.00,,2013-06-23 20:24:00,
2013-06-23 16:33:00,77.0,76.0,30.07,NNE,27,6.0,6.0,97,0.00,,,0.00,,2013-06-23 20:33:00,
2013-06-23 16:42:00,78.0,76.0,30.06,WSW,243,6.0,6.0,94,0.00,,,0.00,,2013-06-23 20:42:00,
2013-06-23 16:53:00,79.0,75.0,30.06,SW,228,3.0,3.0,87,0.00,,,0.00,,2013-06-23 20:53:00,
2013-06-23 17:01:00,80.0,74.0,30.06,WSW,252,7.0,7.0,82,0.00,,,0.00,,2013-06-23 21:01:00,
2013-06-23 17:11:00,81.0,73.0,30.06,SSE,163,6.0,6.0,78,0.00,,,0.00,,2013-06-23 21:11:00,
2013-06-23 17:22:00,82.0,74.0,30.06,NNW,332,6.0,6.0,76,0.00,,,0.00,,2013-06-23 21:22:00,
2013-06-23 17:34:00,82.0,73.0,30.06,SSW,201,7.0,7.0,75,0.00,,,0.00,,2013-06-23 21:34:00,
2013-06-23 17:44:00,82.0,74.0,30.06,NNW,328,5.0,0.0,76,0.00,,,0.00,,2013-06-23 21:44:00,
2013-06-23 17:52:00,82.0,73.0,30.06,NNE,20,3.0,3.0,75,0.00,,,0.00,,2013-06-23 21:52:00,
2013-06-23 18:01:00,83.0,73.0,30.05,SSE,159,6.0,6.0,73,0.00,,,0.00,,2013-06-23 22:01:00,
2013-06-23 18:12:00,83.0,73.0,30.04,ESE,113,2.0,3.0,73,0.00,,,0.00,,2013-06-23 22:12:00,
2013-06-23 18:22:00,83.0,74.0,30.05,SW,233,3.0,0.0,75,0.00,,,0.00,,2013-06-23 22:22:00,
2013-06-23 18:32:00,83.0,74.0,30.05,SW,219,3.0,6.0,75,0.00,,,0.00,,2013-06-23 22:32:00,
2013-06-23 18:43:00,83.0,74.0,30.04,WSW,246,5.0,5.0,74,0.00,,,0.00,,2013-06-23 22:43:00,
2013-06-23 18:53:00,83.0,74.0,30.04,South,173,5.0,5.0,74,0.00,,,0.00,,2013-06-23 22:53:00,
2013-06-23 19:01:00,83.0,75.0,30.04,SSW,210,7.0,7.0,76,0.00,,,0.00,,2013-06-23 23:01:00,
2013-06-23 19:11:00,82.0,74.0,30.04,ESE,107,6.0,0.0,76,0.00,,,0.00,,2013-06-23 23:11:00,
2013-06-23 19:22:00,82.0,74.0,30.04,SW,226,6.0,6.0,76,0.00,,,0.00,,2013-06-23 23:22:00,
2013-06-23 19:33:00,82.0,74.0,30.04,SE,138,4.0,4.0,76,0.00,,,0.00,,2013-06-23 23:33:00,
2013-06-23 19:44:00,82.0,74.0,30.04,SE,143,5.0,0.0,76,0.00,,,0.00,,2013-06-23 23:44:00,
2013-06-23 20:01:00,81.0,75.0,30.04,WSW,242,3.0,5.0,81,0.00,,,0.00,,2013-06-24 00:01:00,
2013-06-23 20:11:00,81.0,75.0,30.04,SE,142,3.0,3.0,81,0.00,,,0.00,,2013-06-24 00:11:00,
2013-06-23 20:22:00,81.0,75.0,30.04,ESE,121,1.0,5.0,83,0.00,,,0.00,,2013-06-24 00:22:00,
2013-06-23 20:33:00,80.0,75.0,30.04,SE,145,5.0,5.0,85,0.00,,,0.00,,2013-06-24 00:33:00,
2013-06-23 20:42:00,80.0,75.0,30.04,SE,136,2.0,4.0,86,0.00,,,0.00,,2013-06-24 00:42:00,
2013-06-23 20:52:00,80.0,76.0,30.04,SE,131,4.0,0.0,87,0.00,,,0.00,,2013-06-24 00:52:00,
2013-06-23 21:02:00,79.0,75.0,30.04,South,173,3.0,5.0,89,0.00,,,0.00,,2013-06-24 01:02:00,
2013-06-23 21:11:00,79.0,76.0,30.04,ESE,108,3.0,0.0,90,0.00,,,0.00,,2013-06-24 01:11:00,
2013-06-23 21:22:00,79.0,76.0,30.04,ESE,108,2.0,4.0,91,0.00,,,0.00,,2013-06-24 01:22:00,
2013-06-23 21:32:00,78.0,76.0,30.05,ESE,120,5.0,5.0,93,0.00,,,0.00,,2013-06-24 01:32:00,
2013-06-23 21:42:00,78.0,76.0,30.05,South,184,1.0,0.0,95,0.00,,,0.00,,2013-06-24 01:42:00,
2013-06-23 21:53:00,78.0,76.0,30.06,South,184,0.0,0.0,95,0.00,,,0.00,,2013-06-24 01:53:00,
2013-06-23 22:02:00,77.0,76.0,30.06,SSE,148,5.0,5.0,97,0.00,,,0.00,,2013-06-24 02:02:00,
2013-06-23 22:11:00,77.0,76.0,30.05,SSE,152,5.0,6.0,97,0.00,,,0.00,,2013-06-24 02:11:00,
2013-06-23 22:22:00,76.0,75.0,30.06,South,186,3.0,4.0,98,0.00,,,0.00,,2013-06-24 02:22:00,
2013-06-23 22:33:00,76.0,75.0,30.06,SE,142,4.0,6.0,97,0.00,,,0.00,,2013-06-24 02:33:00,
2013-06-23 22:42:00,76.0,75.0,30.06,South,183,3.0,5.0,97,0.00,,,0.00,,2013-06-24 02:42:00,
2013-06-23 22:53:00,76.0,75.0,30.06,ESE,114,0.0,0.0,97,0.00,,,0.00,,2013-06-24 02:53:00,
2013-06-23 23:01:00,76.0,75.0,30.06,ESE,114,0.0,0.0,97,0.00,,,0.00,,2013-06-24 03:01:00,
2013-06-23 23:11:00,76.0,75.0,30.07,SE,131,3.0,3.0,98,0.00,,,0.00,,2013-06-24 03:11:00,
2013-06-23 23:22:00,76.0,75.0,30.08,South,177,4.0,6.0,98,0.00,,,0.00,,2013-06-24 03:22:00,
2013-06-23 23:33:00,76.0,75.0,30.08,SSE,166,0.0,4.0,98,0.00,,,0.00,,2013-06-24 03:33:00,
2013-06-23 23:43:00,76.0,75.0,30.08,SSE,166,0.0,4.0,98,0.00,,,0.00,,2013-06-24 03:43:00,
2013-06-23 23:53:00,76.0,75.0,30.08,SE,135,3.0,5.0,98,0.00,,,0.00,,2013-06-24 03:53:00,